Location: �terpigny
(49.8910°N, 2.9249°E)
Time: 22:53:27
(UTC+00:00)

DIWATA 2B (PO-101) - Pass Details

Date: 28 June 2022
Orbit: 583 x 599 km, 98.0° (Epoch: 16 August)

Event Time Altitude Azimuth Distance (km) Brightness Sun altitude
Exits shadow 01:13:48 12° 150° (SSE) 1,786 ? -14.6°
Maximum altitude 01:17:34 60° 72° (ENE) 689 ? -14.4°
Drops below altitude 10° 01:21:44 10° 352° (N) 1,953 ? -14.1°
Sets 01:23:56 0° 349° (N) 2,860 ? -14.0°
